Vorticity
5 5 6 6 6 6 7 7 8 9 9 9 9 9 8 8 7 7 8 10 10 10 10 12 14 16 17 17 16 16 15 13 12 11 10 9 8 7 7 6 5 5 6 6 6 5 5 4 4 4 4 4 4 4 5 5 5 5 6 7 7 7 8 8 9 9 9 9 9
7 7 7 7 8 8 8 9 10 10 9 9 9 9 8 8 7 7 9 10 11 12 13 15 16 18 18 17 15 14 13 12 10 9 8 7 6 6 5 5 4 4 4 4 4 4 4 3 3 3 4 4 5 5 5 6 6 6 7 8 8 9 9 9 9 9 9 9 9
9 9 9 9 9 9 10 10 10 9 9 8 8 8 8 7 8 9 10 12 12 14 15 17 18 18 17 15 13 12 10 10 9 8 7 6 6 5 4 4 4 4 4 3 3 3 3 3 3 4 4 4 6 6 6 7 7 8 8 9 9 9 9 9 9 8 8 8 8
10 10 10 10 10 10 11 10 10 9 8 8 8 7 7 8 9 11 12 13 15 16 17 18 18 16 14 12 11 10 9 8 7 6 5 5 4 4 3 3 3 3 3 3 2 3 3 3 4 5 5 5 6 7 8 8 9 9 9 8 8 8 8 8 8 8 8 8 8
11 11 11 11 11 11 11 10 9 8 8 7 7 7 8 9 11 13 14 16 17 18 18 17 15 13 11 10 9 8 7 6 5 4 4 4 3 3 3 3 3 3 3 3 3 4 4 5 5 6 7 7 8 8 9 8 8 8 8 8 8 8 8 8 9 9 9 8 9
12 12 13 13 13 12 12 10 9 8 7 7 7 8 9 11 13 15 17 18 17 17 16 15 12 10 9 8 8 6 5 4 4 3 3 2 2 2 3 3 4 4 4 5 5 6 6 6 7 7 8 8 8 9 9 8 8 8 8 8 9 9 9 9 9 9 9 9 9
13 13 13 14 14 13 11 10 8 7 7 7 8 9 11 13 16 18 18 16 15 15 14 12 9 8 7 7 5 4 3 2 2 2 2 2 2 3 4 4 5 5 6 6 6 6 7 7 7 8 8 8 8 8 8 8 8 8 8 8 8 9 9 9 9 9 9 9 9
13 13 13 13 13 12 10 8 7 7 7 8 10 12 13 16 18 18 17 15 14 13 10 8 7 6 5 4 2 2 1 1 2 2 3 3 3 4 4 5 5 6 6 6 6 6 7 7 8 8 8 8 8 8 8 8 8 8 8 8 8 9 9 9 9 9 9 9 9
13 13 12 12 11 9 8 7 7 8 9 11 12 14 16 19 18 16 14 13 10 8 7 7 6 5 3 3 2 2 2 2 2 3 3 4 4 4 5 5 6 6 6 6 6 7 7 7 8 8 8 8 8 8 8 8 8 8 8 8 8 8 9 9 9 9 9 9 9
11 11 10 9 8 8 8 8 8 10 11 13 14 16 18 19 16 13 10 8 6 6 6 5 3 3 3 3 4 4 4 4 4 4 4 4 5 5 5 6 6 6 6 7 7 7 7 8 8 8 8 9 8 8 8 8 8 8 8 8 8 8 8 9 9 9 9 10 10
9 9 9 8 8 8 9 10 11 12 13 15 17 18 18 15 12 10 8 6 6 5 4 3 2 3 4 4 5 5 5 5 5 5 5 5 5 5 6 6 6 6 7 7 7 7 8 8 8 8 8 8 8 8 8 8 8 8 8 8 8 8 8 9 9 10 10 10 10
9 9 9 9 10 10 11 12 13 14 15 17 18 16 14 11 9 7 6 6 5 5 4 4 4 5 5 5 5 5 5 5 5 5 5 5 6 6 6 6 7 7 7 7 7 8 8 8 8 8 8 8 8 8 8 8 8 8 8 8 9 9 9 9 10 10 10 10 10
10 10 10 11 11 12 13 13 14 15 16 17 15 13 10 8 7 6 5 5 5 5 5 5 6 6 5 5 5 4 5 5 5 5 5 6 6 6 6 7 7 7 7 8 8 8 8 8 8 8 8 8 8 8 9 8 9 9 9 9 9 9 9 10 10 10 10 11 11
11 11 12 12 13 13 13 13 14 15 15 14 11 9 7 6 6 6 6 6 6 6 6 5 5 5 5 4 4 4 5 5 5 5 6 6 6 7 7 7 7 8 8 8 8 8 8 8 8 8 8 8 8 9 9 9 9 9 9 9 9 9 10 10 10 10 11 11 11
11 12 13 13 13 13 13 13 13 13 13 10 8 7 6 6 6 6 6 7 6 6 5 5 4 4 4 4 4 5 5 5 6 6 6 7 7 7 7 7 8 8 8 8 8 8 8 8 8 8 8 8 9 9 9 9 9 9 9 9 9 10 10 10 11 11 11 10 10
12 12 13 12 12 12 12 12 12 11 9 7 6 6 7 7 7 7 7 6 6 5 4 4 4 4 4 4 5 5 5 6 6 6 7 7 7 8 8 8 8 8 8 8 8 8 9 9 9 9 9 9 9 9 9 9 9 9 9 10 10 10 10 10 10 10 10 10 9
11 12 12 12 12 11 11 10 9 8 7 6 6 7 7 7 7 6 6 5 5 4 4 4 4 4 4 5 5 5 6 6 7 7 7 8 8 8 9 9 9 9 9 9 9 9 9 9 9 9 9 9 9 9 9 9 9 9 9 10 10 10 10 10 10 10 9 9 8
11 11 11 11 11 10 9 8 7 7 7 7 8 8 7 7 6 6 5 5 4 4 4 4 4 4 5 5 5 6 6 7 7 8 8 9 9 9 9 9 9 9 9 9 9 9 9 9 9 9 9 9 9 9 9 9 9 9 10 10 10 10 10 10 10 9 8 8 8
10 10 10 10 9 8 8 7 7 8 8 8 8 7 6 6 5 5 4 4 4 4 4 4 4 5 5 6 6 6 7 8 8 8 9 9 9 9 9 9 9 9 9 9 9 9 9 8 8 8 8 9 9 9 9 9 10 10 10 10 10 10 10 9 9 9 8 8 7
10 9 9 9 8 8 8 8 8 8 8 7 7 6 6 5 5 4 4 4 4 4 4 5 5 5 6 6 6 7 8 8 9 9 9 9 9 9 9 9 9 9 9 9 9 9 8 8 8 8 8 8 9 9 9 10 10 10 10 10 10 10 9 9 8 8 8 8 7
9 9 9 8 9 9 9 9 8 8 7 7 6 5 5 4 4 4 4 4 4 4 5 5 5 6 6 6 7 8 8 9 9 9 10 10 10 10 9 9 9 9 9 9 8 8 8 8 8 8 8 9 9 9 9 9 10 10 10 10 10 9 9 9 8 8 7 7 7
9 9 9 9 9 9 9 8 8 7 6 5 5 5 4 4 4 4 4 4 4 5 5 5 6 6 7 7 8 8 9 9 10 10 10 10 10 10 9 9 9 9 9 9 8 8 8 8 8 8 9 9 9 9 9 10 10 10 10 10 9 9 9 8 8 8 7 7 7
9 9 10 9 9 9 8 7 7 6 5 5 4 4 4 4 4 4 4 4 5 5 5 5 6 6 7 8 8 9 9 10 10 10 10 10 9 9 9 9 9 9 9 8 8 8 8 8 8 9 9 9 9 9 10 10 10 10 9 9 9 8 8 8 8 7 7 7 7
9 9 9 9 8 8 7 6 6 5 4 4 4 4 4 4 4 4 4 4 5 5 5 6 6 7 7 8 9 9 10 10 10 10 10 10 9 9 9 9 9 9 8 8 8 8 8 8 8 8 9 9 9 10 10 10 10 10 9 9 8 8 8 8 8 7 7 7 7
9 8 8 8 7 7 6 6 5 4 4 4 4 4 4 4 4 4 4 4 5 5 6 6 7 7 8 9 9 10 10 10 10 10 9 9 9 9 9 9 9 9 8 8 8 8 8 8 8 8 9 9 10 10 10 10 10 9 9 8 8 7 7 7 8 8 8 7 7
8 7 7 7 7 6 5 5 4 4 3 3 4 4 4 4 4 4 4 5 5 5 6 6 7 8 8 9 10 10 10 10 10 10 9 9 9 9 9 9 9 9 8 8 8 8 8 9 9 9 9 9 9 10 10 10 10 9 9 8 8 7 7 7 7 7 8 8 7
7 7 7 6 6 5 5 4 3 3 3 4 4 4 4 4 4 4 4 5 5 5 6 7 8 8 9 9 10 10 10 10 10 10 9 9 9 9 9 9 9 9 8 8 8 8 8 9 9 9 9 10 10 10 10 9 9 9 8 8 8 8 8 7 7 7 7 7 8
7 6 6 6 6 5 4 4 3 3 3 3 4 4 4 4 4 4 5 5 5 6 6 7 8 9 9 10 10 10 10 10 10 9 9 9 9 9 9 9 9 9 8 8 8 8 8 9 9 9 10 10 10 10 9 9 8 8 8 8 8 8 8 8 7 7 7 7 7
6 5 6 6 5 4 4 4 3 3 3 3 3 3 4 4 4 4 5 5 6 6 7 8 8 9 9 10 10 10 9 9 9 9 9 9 9 9 9 9 9 9 8 8 8 8 8 9 9 9 10 10 10 9 9 9 8 8 8 8 8 8 8 8 8 8 8 8 7
5 6 6 6 5 4 4 3 3 3 3 3 3 3 4 4 4 4 5 5 6 7 7 7 8 9 9 10 9 9 9 9 9 9 9 9 9 9 9 9 9 9 8 8 8 8 9 9 9 10 10 10 9 9 9 8 8 8 8 8 8 8 8 8 8 8 8 8 7
5 6 6 5 5 4 4 3 3 3 3 3 3 3 4 4 4 5 5 6 6 7 7 8 9 9 9 9 9 9 9 9 9 9 9 9 9 9 9 9 9 9 9 8 8 9 9 10 10 10 10 9 9 9 9 8 8 8 8 8 8 8 8 8 8 8 8 8 7
5 5 5 5 4 4 3 3 3 3 3 3 3 3 4 4 4 5 5 6 6 7 8 9 9 9 9 9 9 9 9 9 9 9 9 9 9 9 9 9 9 9 9 8 8 9 9 10 10 10 10 9 9 9 8 8 8 8 8 8 8 8 8 8 8 8 8 8 7
5 5 5 5 4 3 3 3 3 3 3 3 3 3 4 4 4 5 5 6 7 7 8 9 9 9 9 9 9 9 9 9 9 9 9 9 9 9 9 9 9 9 9 8 9 9 10 10 10 10 9 9 9 8 8 8 8 8 8 8 8 8 8 8 8 8 8 7 7
4 5 4 4 3 3 3 3 3 3 3 3 3 4 4 4 5 5 6 6 7 8 8 9 9 9 9 9 9 9 9 9 9 9 9 9 9 9 9 9 9 9 9 9 9 10 10 10 10 10 9 9 8 8 8 8 7 7 7 8 8 8 8 8 8 8 7 7 7
4 4 4 3 3 3 3 3 3 3 3 3 4 4 4 4 5 5 6 6 7 8 8 9 9 9 9 9 9 8 8 8 9 9 9 9 9 9 9 9 9 9 10 9 9 10 10 10 10 9 9 8 8 8 8 7 7 7 7 7 8 8 8 8 8 8 7 7 7
3 3 3 2 2 3 3 3 4 4 4 4 4 4 4 5 5 6 6 6 7 8 8 9 9 9 9 9 8 8 9 9 9 9 9 9 9 9 9 9 9 10 10 10 10 10 10 10 10 9 9 8 8 8 7 7 7 7 7 7 8 8 8 8 7 7 7 7 7
3 3 2 2 2 3 3 4 4 4 4 4 4 4 4 5 5 6 6 7 7 8 8 8 9 9 9 8 8 8 9 9 9 9 9 9 9 9 9 9 10 10 10 10 10 10 10 10 9 9 8 8 8 7 7 7 7 7 8 8 8 8 7 7 7 7 7 7 7
3 2 2 2 2 3 4 5 5 5 5 5 4 4 5 5 6 6 7 7 8 8 8 8 9 9 8 8 8 8 8 9 9 9 9 9 9 9 9 9 10 10 10 10 10 10 10 9 9 9 8 8 7 7 7 7 7 8 8 8 8 8 7 7 7 7 6 6 6
3 2 2 2 3 4 5 6 6 6 5 5 4 5 5 6 6 6 7 7 8 8 8 8 8 8 8 8 8 8 8 9 9 9 9 9 9 9 9 9 9 10 10 10 10 10 9 9 9 8 8 8 7 7 7 7 7 7 8 8 7 7 7 7 7 7 6 6 6
3 3 3 3 4 5 6 6 6 6 5 5 5 5 5 6 6 6 7 7 8 8 8 8 8 8 8 8 8 8 8 9 9 9 9 9 9 9 9 10 10 10 10 10 10 9 9 9 8 8 8 8 7 7 7 7 7 7 8 8 7 7 7 7 7 6 6 6 6
3 3 4 4 5 6 6 7 7 6 6 5 5 5 5 5 6 6 7 8 8 8 8 8 8 8 8 8 8 8 8 8 9 9 9 9 9 9 10 10 10 10 10 10 10 9 9 8 8 8 8 7 7 7 7 7 8 8 8 7 7 7 7 6 6 6 6 6 6
Height
3123 3123 3123 3124 3124 3124 3124 3125 3125 3125 3125 3125 3125 3125 3125 3125 3125 3125 3125 3126 3126 3126 3125 3126 3126 3126 3126 3125 3125 3125 3125 3125 3125 3125 3124 3124 3124 3124 3124 3124 3124 3123 3122 3122 3121 3121 3120 3120 3119 3118 3118 3117 3116 3116 3115 3114 3113 3112 3112 3111 3110 3109 3107 3107 3105 3104 3103 3102 3100
3122 3122 3122 3123 3123 3123 3123 3124 3124 3124 3124 3124 3124 3125 3125 3124 3124 3124 3124 3125 3125 3125 3124 3125 3125 3125 3125 3124 3124 3124 3124 3124 3124 3124 3123 3123 3123 3123 3123 3122 3122 3122 3122 3121 3120 3120 3119 3118 3118 3117 3117 3116 3115 3114 3113 3112 3112 3111 3110 3109 3108 3107 3106 3105 3103 3102 3101 3100 3098
3121 3121 3122 3122 3122 3122 3122 3123 3123 3123 3123 3123 3124 3124 3124 3124 3123 3123 3124 3124 3124 3123 3123 3124 3124 3124 3124 3124 3123 3123 3123 3123 3123 3123 3122 3122 3122 3122 3122 3121 3121 3121 3120 3120 3119 3118 3118 3117 3117 3116 3115 3114 3114 3113 3112 3111 3110 3109 3108 3107 3106 3105 3104 3103 3102 3100 3099 3098 3096
3120 3120 3121 3121 3121 3121 3122 3122 3122 3122 3122 3122 3123 3123 3123 3123 3123 3123 3123 3123 3122 3122 3123 3123 3123 3123 3123 3123 3123 3123 3123 3122 3122 3122 3122 3122 3121 3121 3121 3120 3120 3120 3119 3119 3118 3117 3117 3116 3115 3115 3114 3113 3113 3112 3111 3110 3109 3108 3107 3106 3105 3104 3102 3101 3100 3098 3097 3096 3094
3118 3119 3119 3120 3120 3120 3121 3121 3121 3121 3122 3122 3122 3122 3122 3122 3122 3122 3122 3122 3122 3122 3122 3122 3122 3122 3122 3122 3122 3122 3122 3122 3121 3121 3121 3120 3120 3120 3120 3120 3119 3119 3118 3118 3117 3117 3116 3115 3114 3114 3113 3112 3112 3111 3110 3108 3107 3106 3105 3104 3103 3102 3101 3099 3098 3097 3095 3094 3093
3117 3118 3118 3119 3119 3120 3120 3120 3120 3121 3121 3121 3121 3121 3121 3121 3121 3121 3121 3121 3121 3121 3121 3122 3122 3122 3122 3122 3122 3122 3121 3121 3120 3120 3120 3120 3119 3119 3119 3119 3118 3118 3117 3117 3116 3115 3115 3114 3113 3112 3112 3111 3110 3109 3108 3107 3106 3105 3104 3102 3102 3100 3099 3098 3097 3095 3094 3092 3091
3116 3117 3117 3118 3118 3119 3119 3119 3119 3120 3120 3120 3120 3120 3120 3120 3120 3120 3121 3120 3120 3120 3121 3121 3121 3121 3121 3121 3121 3121 3120 3120 3120 3119 3119 3119 3118 3118 3118 3117 3117 3117 3116 3115 3115 3114 3113 3112 3112 3111 3110 3109 3108 3107 3106 3105 3104 3103 3102 3101 3100 3098 3097 3096 3095 3093 3092 3091 3089
3115 3116 3116 3117 3117 3118 3118 3118 3118 3119 3119 3119 3119 3119 3119 3119 3120 3120 3120 3120 3120 3120 3120 3120 3120 3120 3121 3121 3121 3120 3120 3119 3119 3118 3118 3118 3117 3117 3117 3116 3116 3115 3114 3114 3113 3112 3112 3111 3110 3109 3108 3107 3107 3105 3104 3103 3102 3101 3100 3099 3098 3097 3095 3094 3093 3092 3090 3089 3087
3114 3115 3116 3116 3117 3117 3117 3117 3117 3118 3118 3118 3118 3118 3118 3119 3119 3119 3119 3119 3119 3119 3120 3120 3120 3120 3120 3120 3120 3120 3119 3118 3118 3117 3117 3117 3116 3116 3115 3115 3114 3114 3113 3112 3112 3111 3110 3109 3108 3107 3107 3106 3105 3104 3103 3102 3100 3099 3098 3097 3096 3095 3093 3092 3091 3089 3088 3087 3085
3114 3114 3115 3115 3116 3116 3116 3117 3117 3117 3117 3117 3117 3117 3118 3118 3118 3118 3118 3119 3119 3119 3119 3119 3119 3119 3119 3119 3119 3119 3118 3118 3117 3117 3116 3116 3115 3115 3114 3114 3113 3112 3112 3111 3110 3109 3108 3107 3107 3106 3105 3104 3103 3102 3101 3100 3099 3098 3097 3095 3094 3093 3092 3090 3089 3087 3086 3085 3083
3113 3113 3114 3114 3115 3115 3115 3115 3116 3116 3116 3116 3117 3117 3117 3117 3118 3118 3118 3118 3118 3119 3119 3119 3119 3119 3119 3118 3118 3118 3118 3117 3117 3116 3116 3115 3114 3114 3113 3113 3112 3112 3111 3110 3109 3108 3107 3106 3105 3105 3104 3103 3102 3101 3100 3099 3097 3096 3095 3094 3092 3091 3090 3088 3087 3086 3084 3082 3081
3112 3113 3113 3114 3114 3114 3114 3114 3115 3115 3115 3116 3116 3117 3117 3117 3117 3117 3118 3118 3118 3118 3118 3118 3118 3118 3118 3118 3117 3117 3117 3116 3116 3115 3115 3114 3114 3113 3112 3112 3111 3110 3109 3108 3107 3107 3106 3105 3104 3103 3102 3102 3101 3100 3098 3097 3096 3095 3093 3092 3091 3090 3088 3087 3086 3084 3082 3081 3079
3112 3112 3112 3113 3113 3113 3113 3114 3114 3114 3115 3115 3116 3116 3116 3117 3117 3117 3117 3118 3118 3118 3118 3118 3117 3117 3117 3117 3116 3116 3116 3115 3115 3114 3114 3113 3112 3112 3111 3110 3110 3109 3108 3107 3106 3105 3105 3104 3103 3102 3101 3100 3099 3098 3097 3096 3095 3093 3092 3091 3089 3088 3087 3085 3084 3082 3081 3079 3078
3111 3111 3112 3112 3112 3112 3113 3113 3113 3114 3114 3115 3115 3116 3116 3116 3117 3117 3117 3117 3117 3117 3117 3117 3117 3117 3116 3116 3115 3115 3114 3114 3114 3113 3113 3112 3112 3111 3110 3109 3108 3108 3107 3106 3105 3104 3103 3102 3102 3101 3100 3099 3098 3097 3096 3094 3093 3092 3091 3089 3088 3087 3085 3084 3082 3081 3080 3078 3076
3110 3111 3111 3111 3112 3112 3112 3112 3113 3114 3114 3114 3115 3115 3116 3116 3116 3116 3117 3117 3117 3117 3117 3116 3116 3116 3115 3115 3114 3114 3113 3113 3112 3112 3112 3111 3110 3110 3109 3108 3107 3107 3106 3105 3104 3103 3102 3101 3100 3100 3098 3097 3097 3095 3094 3093 3092 3090 3089 3088 3087 3085 3084 3082 3081 3080 3078 3077 3075
3110 3110 3110 3111 3111 3111 3112 3112 3113 3113 3114 3114 3114 3115 3115 3116 3116 3116 3116 3116 3116 3116 3116 3116 3115 3115 3114 3114 3113 3113 3112 3112 3112 3111 3111 3110 3109 3108 3107 3107 3106 3105 3104 3104 3103 3102 3101 3100 3099 3098 3097 3096 3095 3094 3093 3092 3091 3089 3088 3087 3085 3084 3082 3081 3080 3078 3077 3075 3073
3109 3109 3110 3110 3111 3111 3112 3112 3112 3113 3113 3113 3114 3114 3115 3115 3115 3115 3115 3115 3115 3115 3115 3115 3114 3114 3113 3113 3112 3112 3111 3111 3111 3110 3110 3109 3108 3107 3107 3106 3105 3104 3103 3102 3102 3101 3100 3099 3098 3097 3096 3095 3094 3093 3092 3091 3089 3088 3087 3085 3084 3083 3081 3080 3078 3077 3075 3073 3072
3108 3109 3109 3110 3110 3111 3111 3112 3112 3112 3113 3113 3113 3114 3114 3115 3115 3115 3115 3115 3114 3114 3114 3114 3113 3113 3112 3112 3111 3111 3110 3110 3110 3109 3108 3108 3107 3106 3105 3104 3104 3103 3102 3101 3101 3100 3098 3097 3097 3095 3094 3093 3092 3092 3090 3089 3088 3087 3086 3084 3083 3081 3080 3078 3077 3075 3074 3072 3070
3108 3108 3109 3109 3110 3110 3111 3111 3112 3112 3112 3113 3113 3113 3114 3114 3114 3114 3114 3114 3114 3113 3113 3113 3112 3112 3111 3111 3110 3110 3109 3109 3108 3108 3107 3107 3106 3105 3104 3103 3102 3102 3101 3100 3099 3098 3097 3097 3095 3094 3093 3092 3091 3090 3089 3088 3087 3086 3084 3083 3082 3080 3078 3077 3075 3074 3072 3071 3069
3107 3108 3108 3109 3109 3110 3110 3111 3111 3112 3112 3112 3113 3113 3113 3113 3113 3113 3113 3113 3113 3112 3112 3112 3111 3111 3110 3110 3109 3109 3108 3108 3107 3107 3106 3106 3105 3104 3103 3102 3102 3101 3100 3099 3098 3097 3096 3095 3094 3093 3092 3091 3090 3089 3088 3087 3086 3084 3083 3082 3080 3079 3077 3076 3074 3072 3071 3069 3067
3107 3107 3108 3108 3109 3109 3110 3110 3111 3111 3112 3112 3112 3112 3112 3112 3112 3112 3112 3112 3112 3112 3111 3111 3110 3110 3109 3109 3108 3108 3107 3107 3107 3106 3105 3105 3104 3103 3102 3102 3101 3100 3099 3098 3097 3096 3095 3094 3093 3092 3091 3090 3089 3088 3087 3086 3085 3083 3082 3080 3079 3077 3076 3074 3072 3071 3069 3067 3066
3107 3107 3107 3108 3108 3109 3109 3110 3110 3111 3111 3111 3112 3112 3112 3112 3112 3112 3112 3111 3111 3111 3110 3110 3109 3109 3108 3108 3107 3107 3107 3106 3106 3105 3104 3104 3103 3102 3101 3100 3099 3098 3097 3097 3096 3095 3094 3093 3092 3091 3090 3089 3088 3087 3086 3085 3083 3082 3080 3079 3077 3076 3074 3073 3071 3070 3068 3066 3064
3106 3107 3107 3107 3108 3108 3109 3109 3110 3110 3110 3111 3111 3111 3111 3111 3111 3111 3110 3110 3110 3110 3109 3109 3108 3108 3107 3107 3107 3106 3106 3105 3105 3104 3103 3102 3102 3101 3100 3099 3098 3097 3097 3096 3094 3093 3092 3092 3091 3090 3089 3088 3087 3086 3084 3083 3082 3080 3079 3077 3076 3074 3073 3072 3070 3068 3066 3064 3063
3106 3106 3107 3107 3107 3108 3108 3109 3109 3109 3110 3110 3110 3110 3110 3110 3110 3110 3109 3109 3109 3108 3108 3108 3107 3107 3107 3106 3106 3106 3105 3105 3104 3103 3102 3102 3101 3100 3099 3098 3097 3096 3095 3094 3093 3092 3092 3091 3090 3089 3088 3087 3086 3084 3083 3082 3080 3079 3077 3076 3074 3073 3071 3070 3068 3067 3065 3063 3061
3105 3105 3106 3107 3107 3107 3108 3108 3108 3109 3109 3109 3109 3109 3109 3109 3109 3109 3108 3108 3108 3107 3107 3107 3107 3106 3106 3105 3105 3105 3104 3104 3103 3102 3102 3101 3100 3099 3098 3097 3096 3095 3094 3093 3092 3091 3090 3089 3088 3087 3086 3085 3084 3083 3082 3080 3079 3077 3076 3075 3073 3072 3070 3068 3067 3065 3063 3061 3059
3104 3105 3105 3106 3106 3107 3107 3107 3108 3108 3108 3108 3108 3108 3108 3108 3108 3108 3108 3107 3107 3107 3107 3106 3106 3105 3105 3104 3104 3104 3103 3103 3102 3102 3101 3100 3099 3098 3097 3096 3095 3094 3093 3092 3091 3090 3089 3088 3087 3086 3085 3084 3082 3082 3080 3079 3077 3076 3075 3073 3072 3070 3068 3067 3065 3063 3061 3059 3057
3104 3104 3105 3105 3106 3106 3106 3107 3107 3107 3107 3107 3107 3107 3107 3107 3107 3107 3107 3107 3106 3106 3106 3105 3105 3104 3104 3104 3103 3103 3102 3102 3102 3101 3100 3099 3098 3097 3096 3095 3094 3093 3092 3091 3089 3088 3088 3087 3086 3085 3083 3082 3081 3080 3079 3077 3076 3075 3073 3072 3070 3069 3067 3065 3064 3062 3060 3058 3056
3103 3104 3104 3105 3105 3105 3106 3106 3106 3106 3107 3107 3107 3107 3107 3107 3107 3106 3106 3106 3106 3105 3105 3104 3104 3103 3103 3103 3102 3102 3102 3101 3101 3100 3099 3098 3097 3096 3095 3094 3093 3092 3091 3089 3088 3087 3087 3086 3085 3083 3082 3081 3080 3079 3077 3076 3075 3073 3072 3071 3069 3067 3066 3064 3062 3061 3059 3057 3055
3102 3103 3103 3104 3104 3104 3105 3105 3105 3106 3106 3106 3106 3106 3106 3106 3106 3105 3105 3105 3105 3104 3104 3103 3103 3103 3102 3102 3101 3101 3101 3100 3099 3099 3098 3097 3096 3095 3094 3093 3092 3091 3090 3089 3087 3087 3086 3085 3083 3082 3081 3080 3079 3077 3076 3075 3073 3072 3071 3069 3067 3066 3064 3062 3061 3059 3057 3055 3053
3102 3102 3102 3103 3103 3104 3104 3104 3105 3105 3105 3105 3105 3105 3105 3105 3105 3105 3104 3104 3104 3103 3103 3103 3102 3102 3101 3101 3100 3100 3099 3099 3098 3098 3097 3096 3095 3094 3093 3092 3091 3090 3089 3087 3087 3086 3085 3083 3082 3081 3080 3079 3077 3076 3075 3073 3072 3071 3069 3068 3066 3064 3063 3061 3059 3057 3056 3054 3052
3101 3101 3102 3102 3102 3103 3103 3103 3104 3104 3104 3104 3104 3104 3104 3104 3104 3104 3103 3103 3103 3102 3102 3102 3101 3101 3100 3100 3099 3099 3098 3098 3097 3097 3096 3095 3094 3093 3092 3091 3090 3089 3088 3087 3085 3084 3083 3082 3081 3080 3079 3077 3076 3075 3073 3072 3071 3069 3068 3066 3065 3063 3061 3060 3058 3056 3054 3052 3050
3100 3100 3101 3101 3102 3102 3102 3103 3103 3103 3103 3103 3103 3103 3103 3103 3103 3103 3103 3102 3102 3102 3101 3101 3100 3100 3099 3099 3098 3098 3097 3097 3096 3096 3095 3094 3093 3092 3091 3090 3089 3088 3087 3086 3084 3083 3082 3081 3080 3079 3077 3076 3074 3073 3072 3070 3069 3067 3066 3065 3063 3062 3060 3058 3056 3055 3053 3051 3049
3099 3100 3100 3100 3101 3101 3102 3102 3102 3102 3102 3102 3102 3102 3102 3102 3102 3102 3102 3102 3101 3101 3100 3100 3099 3099 3098 3097 3097 3097 3096 3095 3095 3094 3094 3093 3092 3091 3090 3089 3088 3087 3086 3084 3083 3082 3081 3080 3079 3077 3076 3074 3073 3072 3070 3069 3067 3066 3064 3063 3062 3060 3058 3057 3055 3053 3051 3049 3047
3098 3099 3099 3099 3100 3100 3101 3101 3101 3101 3102 3102 3102 3102 3102 3102 3101 3101 3101 3101 3100 3100 3099 3099 3098 3098 3097 3097 3096 3095 3095 3094 3094 3093 3092 3092 3091 3090 3089 3088 3087 3086 3085 3083 3082 3081 3080 3079 3077 3076 3075 3073 3072 3070 3069 3067 3066 3065 3063 3062 3060 3058 3057 3055 3053 3051 3049 3047 3045
3097 3098 3098 3099 3099 3099 3100 3100 3100 3100 3101 3101 3101 3101 3101 3101 3101 3100 3100 3100 3099 3099 3098 3098 3097 3097 3096 3096 3095 3094 3093 3093 3092 3092 3091 3090 3089 3088 3088 3087 3086 3085 3083 3082 3081 3079 3078 3077 3076 3075 3073 3072 3070 3069 3067 3066 3065 3063 3062 3060 3058 3057 3055 3053 3051 3049 3047 3046 3043
3096 3097 3097 3098 3098 3098 3099 3099 3099 3099 3100 3100 3100 3100 3100 3100 3100 3099 3099 3099 3098 3098 3097 3097 3096 3096 3095 3094 3094 3093 3092 3092 3091 3091 3090 3089 3088 3087 3086 3085 3084 3083 3082 3081 3079 3078 3077 3076 3075 3073 3072 3071 3069 3068 3066 3065 3063 3062 3060 3059 3057 3055 3053 3052 3050 3048 3046 3044 3042
3095 3096 3096 3097 3097 3097 3098 3098 3098 3098 3099 3099 3099 3099 3099 3099 3099 3098 3098 3098 3097 3097 3096 3096 3095 3094 3094 3093 3092 3092 3091 3091 3090 3089 3088 3088 3087 3086 3085 3084 3083 3082 3081 3079 3078 3077 3076 3075 3073 3072 3071 3069 3068 3067 3065 3064 3062 3061 3059 3057 3056 3054 3052 3050 3048 3046 3044 3042 3040
3094 3095 3095 3096 3096 3097 3097 3097 3097 3097 3098 3098 3098 3098 3098 3098 3097 3097 3097 3097 3096 3096 3095 3095 3094 3093 3092 3092 3091 3091 3090 3089 3089 3088 3087 3087 3086 3084 3083 3082 3082 3080 3079 3078 3077 3076 3075 3073 3072 3071 3070 3068 3067 3066 3064 3062 3061 3059 3058 3056 3054 3052 3050 3048 3046 3044 3042 3040 3038
3093 3094 3094 3095 3095 3096 3096 3096 3096 3097 3097 3097 3097 3097 3097 3097 3097 3097 3096 3096 3095 3095 3094 3093 3093 3092 3092 3091 3090 3089 3089 3088 3087 3087 3086 3085 3084 3083 3082 3081 3080 3079 3078 3077 3076 3074 3073 3072 3071 3070 3068 3067 3066 3064 3063 3062 3060 3058 3056 3055 3053 3051 3049 3047 3045 3042 3040 3038 3036
3092 3093 3093 3094 3094 3094 3095 3095 3095 3096 3096 3096 3096 3096 3096 3096 3096 3096 3095 3095 3094 3094 3093 3092 3092 3091 3090 3090 3089 3088 3087 3087 3086 3086 3085 3084 3083 3082 3081 3080 3079 3078 3077 3076 3074 3073 3072 3071 3070 3068 3067 3066 3064 3063 3062 3060 3058 3057 3055 3053 3051 3049 3047 3046 3044 3042 3039 3037 3034
3091 3092 3092 3093 3093 3093 3094 3094 3094 3095 3095 3095 3095 3095 3095 3095 3095 3094 3094 3094 3093 3092 3092 3091 3091 3090 3089 3088 3088 3087 3086 3086 3085 3084 3083 3082 3082 3080 3079 3078 3077 3077 3076 3074 3073 3072 3071 3070 3068 3067 3066 3065 3063 3062 3060 3059 3057 3055 3054 3052 3050 3048 3046 3044 3042 3040 3038 3036 3033